This demonstration page uses our WeatherBlox Daily Observations layout. Learn more.

Left ArrowRight Arrow

Hourly Observations for March 22, 2020

Temp ( °F °C ) Dew Point ( °F °C ) Humidity (%) Winds ( mph kmh ) Pressure ( in mb ) Visibility ( mi km ) Precip ( " mm )
12:53 am 00:53 Mostly Cloudy 32 undefined 23 -5 69 69 E 6 9 30.52 1034 10 16.0934 N/A
1:53 am 01:53 Clear 30 -1.1 22 -5.6 72 72 ENE 5 7 30.51 1033 10 16.0934 N/A
2:53 am 02:53 Clear 30 -1.1 22 -5.6 72 72 NE 6 9 30.52 1033 10 16.0934 N/A
3:53 am 03:53 Clear 29 -1.7 23 -5 78 78 NE 6 9 30.52 1033 10 16.0934 N/A
4:53 am 04:53 Clear 29 -1.7 23 -5 78 78 ENE 5 7 30.51 1033 10 16.0934 N/A
5:53 am 05:53 Clear 28 -2.2 22 -5.6 78 78 ENE 5 7 30.52 1034 10 16.0934 N/A
6:53 am 06:53 Clear 28 -2.2 22 -5.6 78 78 ENE 3 6 30.52 1033 10 16.0934 N/A
7:53 am 07:53 Sunny 28 -2.2 22 -5.6 78 78 N N/A 30.53 1034 10 16.0934 N/A
8:53 am 08:53 Sunny 30 -1.1 24 -4.4 79 79 ENE 6 9 30.54 1034 10 16.0934 N/A
9:53 am 09:53 Sunny 34 1.1 26 -3.3 73 73 E 10 17 30.53 1034 10 16.0934 N/A
10:53 am 10:53 Sunny 38 3.3 28 -2.2 68 68 E 10 17 30.49 1033 10 16.0934 N/A
11:53 am 11:53 Sunny 40 4.4 28 -2.2 63 63 VRB 5 7 30.48 1032 10 16.0934 N/A
12:53 pm 12:53 Sunny 43 6.1 29 -1.7 58 58 VRB 5 7 30.46 1031 10 16.0934 N/A
1:53 pm 13:53 Partly Cloudy 43 6.1 30 -1.1 60 60 E 9 15 30.4 1030 10 16.0934 N/A
2:53 pm 14:53 Cloudy 43 6.1 30 -1.1 60 60 E 10 17 30.36 1028 10 16.0934 N/A
3:53 pm 15:53 Cloudy with Light Rain 42 5.6 32 undefined 68 68 E 7 11 30.35 1028 8 12.87472 0.01 0.254
4:53 pm 16:53 Cloudy with Light Rain 41 5 34 1.1 76 76 ENE 7 11 30.34 1027 10 16.0934 0.03 0.762
5:53 pm 17:53 Cloudy 41 5 34 1.1 76 76 NE 6 9 30.31 1026 10 16.0934 0.01 0.254
6:53 pm 18:53 Mostly Cloudy 41 5 34 1.1 76 76 ENE 8 13 30.31 1026 10 16.0934 N/A
7:53 pm 19:53 Mostly Cloudy 41 5 34 1.1 76 76 E 7 11 30.27 1025 10 16.0934 N/A
8:53 pm 20:53 Cloudy 41 5 34 1.1 76 76 E 6 9 30.24 1024 10 16.0934 N/A
9:53 pm 21:53 Cloudy 42 5.6 34 1.1 73 73 E 3 6 30.24 1024 10 16.0934 N/A
10:53 pm 22:53 Cloudy 41 5 34 1.1 76 76 E 3 6 30.22 1023 10 16.0934 N/A
11:53 pm 23:53 Cloudy 42 5.6 35 1.7 76 76 NE 3 6 30.2 1023 10 16.0934 N/A

Powered by AerisWeather